Theta_e
295 295 294 294 293 291 291 290 290 290 289 288 287 286 286 285 283 282 281 281 280 280 281 281 280 280 280 279 279 279 280 281 281 281 281 281 280 280 280 280 280 280
294 294 293 292 291 291 290 289 289 289 288 287 286 285 284 283 281 281 281 280 280 280 280 280 279 279 279 279 279 279 280 281 281 281 281 280 280 280 280 280 279 279
293 293 292 291 290 290 289 289 289 288 287 286 285 284 282 281 281 280 280 280 280 280 280 279 279 278 278 278 279 279 280 280 280 280 280 279 279 279 279 279 279 279
292 291 291 290 289 289 289 289 288 287 286 285 283 283 281 280 280 280 279 279 279 279 279 279 278 278 278 278 278 279 279 279 279 279 279 279 279 279 279 279 279 279
291 290 290 289 289 289 289 288 287 286 284 283 282 281 281 280 280 279 279 279 279 279 279 278 278 277 277 278 278 278 279 279 279 279 279 278 278 278 278 278 278 278
290 290 290 290 289 289 288 287 286 284 283 282 281 280 280 279 279 279 279 279 279 278 278 278 277 277 277 277 278 278 278 278 278 278 278 278 278 278 278 278 278 277
290 290 289 289 288 288 287 285 284 283 282 281 280 280 279 279 279 279 279 279 278 278 278 277 277 277 277 277 277 278 277 278 278 278 277 278 278 278 278 278 277 277
290 290 289 288 288 287 286 285 284 283 281 280 279 279 279 279 279 279 278 278 278 278 277 277 277 276 276 277 277 277 277 277 277 277 277 277 278 278 278 277 277 277
290 289 288 287 287 286 285 284 283 281 280 279 279 279 279 279 278 278 278 278 278 277 276 276 276 276 276 276 276 276 277 277 277 277 277 277 278 278 278 277 277 276
289 288 287 287 287 286 285 284 282 280 280 279 279 279 278 278 278 278 278 278 277 277 276 276 276 275 275 275 275 276 276 277 277 277 277 278 278 278 278 277 277 276
288 288 287 287 286 285 284 283 282 281 280 279 279 279 278 278 278 278 278 277 277 276 276 275 275 275 275 275 275 276 276 277 277 277 277 278 278 278 277 277 276 276
288 287 287 287 286 285 284 283 283 282 280 279 279 278 278 278 278 278 277 277 276 276 275 275 275 275 275 274 275 276 276 277 277 277 277 278 278 278 277 276 276 276
288 288 287 287 286 285 285 284 283 281 280 279 278 278 278 278 278 277 277 276 276 276 275 275 275 275 274 274 275 276 277 277 277 277 277 277 277 277 276 276 276 276
288 288 287 287 286 286 285 285 283 280 279 278 278 277 277 277 277 277 277 276 276 275 275 275 274 274 274 274 275 276 277 277 277 277 277 277 277 276 276 276 276 276
288 288 288 287 286 285 285 284 282 280 278 278 277 277 277 277 277 277 276 276 276 275 275 274 274 274 274 275 276 276 276 277 277 277 277 276 276 276 276 276 276 276
288 288 287 287 286 285 284 283 280 279 278 277 277 277 277 277 277 276 276 276 275 275 275 274 274 274 274 275 276 276 277 277 277 277 277 276 275 276 276 276 276 275
288 288 287 286 285 284 284 282 280 278 278 277 277 277 277 277 276 276 276 275 275 275 274 274 274 274 274 275 275 276 277 277 277 277 276 275 275 276 276 275 275 275
288 287 287 286 285 284 283 281 279 278 278 277 277 277 277 276 276 276 275 275 275 275 274 274 274 274 274 274 274 276 277 277 277 276 275 275 275 275 275 275 275 275
287 287 286 285 284 283 282 280 279 278 278 277 277 277 276 276 276 276 275 275 275 274 274 274 273 274 274 273 274 275 277 277 276 276 275 275 275 275 275 275 275 275
287 287 286 285 284 283 281 280 278 278 278 277 277 277 276 276 276 276 275 275 274 274 274 274 273 274 274 273 273 275 276 276 276 275 275 275 275 275 275 275 275 275
287 287 286 285 285 283 281 279 278 278 278 277 276 276 276 276 276 276 275 275 274 274 274 274 273 274 274 274 273 275 276 275 275 275 275 275 275 275 275 275 275 275
287 287 286 286 284 282 281 279 278 278 278 277 276 276 276 276 276 276 275 275 274 274 274 274 273 273 274 273 273 274 275 275 274 275 275 275 275 275 274 274 275 274
287 286 286 285 284 283 281 280 278 278 277 276 276 276 276 276 275 275 275 274 274 274 274 274 273 273 273 273 273 274 274 274 274 274 275 275 275 274 274 274 274 273
287 286 286 285 285 284 283 280 278 278 277 276 276 276 276 275 275 275 275 275 274 274 274 273 273 272 272 272 273 273 274 274 274 274 275 275 274 274 274 273 273 273
287 286 286 285 285 285 283 280 278 278 277 276 276 276 275 275 275 275 275 275 274 274 274 273 273 273 272 272 272 273 274 274 274 274 274 274 274 274 273 273 272 272
287 286 286 286 285 285 283 280 278 278 277 276 276 276 275 275 276 275 275 275 274 274 274 273 273 273 272 272 272 272 273 274 274 274 274 274 274 274 273 272 272 272
Wind_Speed
6 5 4 4 4 6 6 7 7 7 8 9 11 11 11 14 16 16 18 19 19 18 17 18 19 19 19 19 19 17 15 14 15 14 14 15 15 14 15 15 14 14
4 4 4 3 5 6 7 8 8 8 8 9 10 11 12 15 16 16 17 18 18 18 18 18 20 19 19 19 17 16 15 14 14 14 14 15 14 14 15 15 14 14
3 4 4 4 6 7 7 8 8 8 8 8 10 11 13 15 16 16 17 17 18 19 18 19 20 18 18 18 16 15 14 14 14 14 14 15 14 14 15 14 14 13
4 4 5 6 7 7 8 9 9 9 9 9 10 11 13 15 15 16 17 18 18 19 19 19 19 18 17 16 15 14 14 13 14 15 15 15 15 14 14 14 14 14
4 4 6 7 7 7 8 9 9 9 9 10 11 12 14 16 16 17 18 19 19 19 19 19 19 17 16 15 14 14 14 14 14 14 15 15 14 13 13 14 14 15
4 5 6 7 7 8 8 8 8 9 11 12 12 12 14 16 16 18 19 19 19 19 19 19 18 17 15 14 14 14 14 14 14 14 15 14 14 13 13 14 14 15
4 5 6 6 7 7 7 7 8 10 12 12 12 12 14 16 17 18 19 19 19 19 18 18 17 17 15 14 14 15 14 14 14 14 14 14 13 13 14 14 14 15
4 4 5 6 6 7 7 8 9 10 12 13 13 14 15 16 17 18 19 18 18 18 17 17 16 16 15 13 13 15 15 14 13 14 14 14 14 14 14 14 14 16
3 4 4 5 5 7 8 8 10 11 12 13 14 15 15 16 16 17 18 17 17 18 17 16 15 15 14 13 13 14 14 13 14 13 13 14 15 15 14 14 16 17
2 3 3 4 5 7 8 9 10 11 12 14 15 15 16 16 16 16 17 17 17 18 17 15 15 14 13 13 13 14 14 14 14 14 13 14 15 14 13 15 18 18
2 2 3 5 6 7 8 9 10 12 13 14 15 16 15 15 16 16 17 17 17 17 17 15 14 13 12 14 14 13 14 14 14 14 14 15 15 14 14 16 17 17
2 2 4 5 6 7 8 9 11 12 14 14 15 15 15 15 15 16 16 16 17 17 16 15 14 11 12 15 15 13 14 14 14 15 15 15 15 14 15 16 15 15
1 2 3 5 6 7 8 10 11 12 13 14 14 14 14 15 15 16 16 16 16 16 15 14 12 10 12 16 15 14 15 15 15 16 15 15 15 15 15 15 15 15
1 1 3 5 7 7 8 10 11 12 12 13 14 14 14 14 15 16 17 16 16 16 14 13 11 10 12 15 14 14 15 15 16 16 16 16 15 15 15 14 15 15
1 2 4 5 6 6 8 10 10 11 12 13 13 13 14 14 14 15 16 17 17 16 13 11 10 10 12 14 14 15 16 15 16 16 15 16 15 15 15 14 15 16
2 2 3 4 4 6 8 9 10 10 11 12 13 13 13 13 13 14 15 16 17 15 13 12 10 11 13 13 13 15 16 16 17 16 14 15 15 15 15 15 16 16
1 1 2 2 4 6 7 9 10 10 11 12 13 13 13 13 13 14 15 16 16 15 13 12 10 10 13 14 13 15 16 17 17 15 14 15 14 15 16 17 17 16
1 1 2 2 4 6 7 8 9 10 11 12 13 13 13 13 13 14 15 16 16 15 13 12 10 10 13 15 14 14 16 18 16 14 14 14 14 15 17 17 17 16
3 2 2 2 4 5 6 7 9 10 11 12 13 13 13 13 14 14 15 15 16 15 14 12 11 10 12 15 15 15 17 18 15 13 13 13 14 16 16 16 16 16
4 3 2 2 3 4 5 6 8 10 11 12 13 13 13 14 14 15 15 15 15 15 14 13 12 10 11 14 15 15 17 17 14 13 13 12 14 15 16 16 16 16
5 4 2 2 3 4 5 6 8 10 10 11 12 13 13 13 14 15 15 14 15 15 14 14 13 10 10 14 15 15 17 16 13 13 13 13 14 15 16 16 16 16
6 5 3 2 2 3 4 6 8 9 10 11 12 12 12 13 14 15 15 15 15 15 15 16 14 11 10 13 14 15 16 15 14 14 14 14 15 16 16 15 16 16
7 6 4 3 3 3 4 6 7 8 9 10 11 12 13 14 15 15 15 14 14 15 16 17 15 12 11 13 14 15 16 15 15 15 14 14 15 16 16 16 16 16
8 7 5 4 4 4 5 6 7 7 8 9 11 12 13 14 15 16 15 14 13 15 16 16 15 14 14 14 14 14 15 15 15 15 15 15 16 16 16 16 17 16
9 7 6 6 5 5 5 6 6 7 9 10 10 11 13 14 14 15 16 15 14 14 15 14 14 15 16 16 13 13 14 15 15 15 15 16 17 18 19 18 17 15
9 8 7 6 6 6 6 6 6 7 9 10 10 11 12 14 15 15 16 16 15 14 14 13 13 15 17 16 13 12 13 14 14 15 15 17 20 20 21 21 19 17
Wind_Direction
85 80 67 51 34 28 21 19 20 14 4 355 352 351 339 336 345 350 351 350 350 351 349 345 347 349 346 346 346 349 355 348 339 337 335 338 343 341 340 340 339 339
88 86 74 43 28 29 23 22 20 8 4 354 343 344 342 344 352 354 351 349 349 353 352 349 350 350 346 346 347 350 351 345 342 339 337 343 346 342 341 340 340 338
73 58 51 39 32 33 22 17 13 2 0 351 341 347 348 350 355 353 351 352 353 355 354 350 351 351 347 345 348 350 347 342 341 339 340 346 346 343 342 339 338 336
63 46 43 43 37 29 15 9 7 3 0 354 351 352 349 352 357 355 355 357 356 356 354 351 351 351 348 346 348 348 344 341 340 341 344 348 346 345 343 340 337 336
61 49 45 40 30 20 11 7 6 3 2 2 359 352 348 354 359 357 359 359 356 356 355 352 351 352 349 347 347 347 344 343 343 344 346 348 347 346 343 340 338 336
61 48 38 27 22 17 11 8 6 4 6 6 2 353 351 357 359 358 360 359 356 356 354 351 351 351 349 348 347 347 346 346 346 347 348 348 347 346 344 341 338 336
58 39 25 21 20 17 13 11 9 7 6 5 3 359 358 360 359 359 359 357 356 356 353 350 350 348 349 350 348 347 348 349 349 349 348 347 346 345 344 342 338 336
47 30 25 26 20 14 15 15 12 8 4 4 7 5 2 2 360 358 358 356 355 354 352 351 349 346 349 351 348 347 350 350 349 348 348 346 344 342 342 340 337 336
37 37 37 29 16 14 17 15 12 8 4 6 8 7 5 4 1 358 357 356 354 353 353 352 347 346 351 351 349 350 350 349 346 346 346 345 342 339 338 338 336 336
50 58 50 27 15 17 17 13 11 8 6 8 7 6 6 4 1 359 357 357 354 352 354 352 347 349 352 348 349 352 349 346 344 344 345 342 338 335 336 336 335 335
87 68 41 25 18 17 14 11 10 8 8 8 5 5 5 3 3 2 360 358 354 351 352 350 350 353 347 345 352 353 346 343 342 342 342 339 335 334 335 334 333 333
121 61 27 23 20 17 13 9 7 6 7 6 4 4 4 3 5 4 1 358 352 350 351 350 355 352 338 346 357 351 343 342 341 341 340 335 333 333 334 333 333 333
138 49 26 24 22 18 12 6 5 6 6 5 3 3 2 2 4 3 0 355 349 351 352 351 355 344 333 349 358 348 343 343 341 340 338 334 332 331 332 334 334 333
143 53 31 26 22 16 8 5 5 4 4 4 3 2 0 0 2 0 356 353 350 351 353 353 352 337 336 351 353 344 344 343 340 339 334 332 332 331 332 334 332 332
135 48 29 25 16 10 8 5 3 2 3 3 1 359 360 1 1 356 353 351 349 351 355 358 349 333 338 350 349 344 344 342 339 337 332 331 332 331 333 334 332 332
127 44 21 16 9 9 8 3 1 2 1 359 359 358 360 1 358 354 351 347 345 351 358 0 349 332 337 347 348 344 344 342 338 334 331 332 331 331 333 333 331 331
133 33 353 357 9 9 4 1 2 1 355 355 358 358 360 1 357 352 349 344 345 353 359 358 349 333 335 344 347 346 346 343 338 332 330 332 330 330 331 330 330 331
198 277 317 356 10 3 358 1 1 355 351 353 357 358 359 359 355 351 348 345 348 355 357 356 348 330 333 342 345 347 347 343 338 332 330 331 331 330 329 329 330 328
220 254 297 349 359 354 354 360 354 348 348 352 355 358 358 355 354 353 349 347 349 351 353 354 345 333 336 343 345 347 347 344 340 333 329 328 329 330 329 328 327 325
221 241 270 318 338 349 355 352 343 342 348 351 353 358 358 353 352 352 351 350 347 346 349 351 345 339 339 342 346 348 347 346 341 334 329 326 327 329 328 326 325 325
223 231 241 280 320 343 348 339 333 337 346 349 352 357 356 351 349 351 353 352 346 343 345 345 344 344 341 341 346 349 347 347 342 335 331 325 325 328 326 324 324 323
226 229 232 258 301 326 327 322 324 333 342 346 350 356 356 350 348 352 355 351 346 343 339 340 347 351 344 342 347 349 349 348 341 335 331 326 326 327 324 323 323 320
226 229 233 243 261 291 306 310 317 331 338 343 350 355 356 351 347 351 355 352 346 341 336 338 348 352 344 342 347 349 349 347 341 335 330 326 325 325 324 323 321 320
226 230 235 240 253 279 300 305 315 330 337 344 353 353 351 349 345 347 354 356 349 340 336 338 342 342 340 341 345 349 349 345 340 334 330 328 327 325 323 323 321 321
229 231 236 243 260 280 293 303 316 332 340 347 353 350 347 347 344 345 352 359 355 342 337 338 336 335 340 344 345 348 348 344 339 334 330 329 329 326 324 324 323 321
233 234 241 252 264 275 285 302 320 332 339 347 350 349 347 346 344 347 352 356 355 346 341 342 336 333 340 344 344 344 345 344 340 335 331 329 329 328 325 325 325 324